• In Uzbekistan
  • List of Countries
  • For 7 days
  • Water Temperature
  • Satellite Maps
  • Weather Map
  • Weather Widgets
  • user-avatar
    Login

    Hourly Weather Igls

    Today, 20 October, Friday

    Time Temperature Precipitation Wind Pressure Humidity
    00:00 +9°C° 0 mm 2 mps 684 mmHg 45%
    01:00 +9°C° 0 mm 2 mps 684 mmHg 46%
    02:00 +9°C° 0 mm 2 mps 684 mmHg 49%
    03:00 +9°C° 0 mm 2 mps 684 mmHg 52%
    04:00 +9°C° 0 mm 2 mps 684 mmHg 55%
    05:00 +9°C° 0 mm 2 mps 684 mmHg 59%
    06:00 +9°C° 0 mm 2 mps 684 mmHg 63%
    07:00 +10°C° 0 mm 1 mps 684 mmHg 67%
    08:00 +13°C° 0 mm 1 mps 685 mmHg 61%
    09:00 +15°C° 0 mm 1 mps 685 mmHg 54%
    10:00 +19°C° 0 mm 1 mps 686 mmHg 48%
    11:00 +19°C° 0 mm 1 mps 686 mmHg 46%
    12:00 +20°C° 0 mm 1 mps 686 mmHg 44%
    13:00 +20°C° 0 mm 1 mps 686 mmHg 42%
    14:00 +20°C° 0 mm 1 mps 686 mmHg 48%
    15:00 +19°C° 0 mm 1 mps 686 mmHg 53%
    16:00 +18°C° 0 mm 1 mps 686 mmHg 58%
    17:00 +15°C° 0 mm 1 mps 686 mmHg 67%
    18:00 +13°C° 0 mm 1 mps 686 mmHg 76%
    19:00 +9°C° 0 mm 0 mps 686 mmHg 85%
    20:00 +10°C° 0 mm 1 mps 686 mmHg 84%
    21:00 +10°C° 0 mm 1 mps 686 mmHg 83%
    22:00 +10°C° 0 mm 1 mps 686 mmHg 82%
    23:00 +10°C° 0 mm 1 mps 686 mmHg 79%

    Tomorrow, 21 October, Saturday

    Time Temperature Precipitation Wind Pressure Humidity
    00:00 +10°C° 0 mm 1 mps 686 mmHg 77%
    01:00 +10°C° 0 mm 1 mps 686 mmHg 74%
    02:00 +10°C° 0 mm 1 mps 686 mmHg 73%
    03:00 +10°C° 0 mm 1 mps 686 mmHg 72%
    04:00 +10°C° 0 mm 1 mps 686 mmHg 70%
    05:00 +10°C° 0 mm 1 mps 686 mmHg 70%
    06:00 +10°C° 0 mm 1 mps 685 mmHg 69%
    07:00 +9°C° 0 mm 1 mps 685 mmHg 68%
    08:00 +12°C° 0 mm 1 mps 686 mmHg 61%
    09:00 +15°C° 0 mm 1 mps 686 mmHg 54%
    10:00 +16°C° 0 mm 0 mps 687 mmHg 47%
    11:00 +17°C° 0 mm 0 mps 687 mmHg 44%
    12:00 +20°C° 0 mm 1 mps 687 mmHg 42%
    13:00 +21°C° 0 mm 1 mps 686 mmHg 39%
    14:00 +20°C° 0 mm 1 mps 686 mmHg 46%
    15:00 +19°C° 0 mm 1 mps 686 mmHg 52%
    16:00 +19°C° 0 mm 1 mps 685 mmHg 59%
    17:00 +15°C° 0 mm 1 mps 685 mmHg 66%
    18:00 +13°C° 0 mm 1 mps 685 mmHg 74%
    19:00 +10°C° 0 mm 0 mps 684 mmHg 81%
    20:00 +11°C° 0 mm 1 mps 685 mmHg 81%
    21:00 +11°C° 0 mm 1 mps 685 mmHg 82%
    22:00 +11°C° 0 mm 1 mps 685 mmHg 82%
    23:00 +10°C° 0.2 mm 1 mps 685 mmHg 85%

    Day after tomorrow, 22 October, Sunday

    Time Temperature Precipitation Wind Pressure Humidity
    00:00 +10°C° 0.2 mm 1 mps 685 mmHg 87%
    01:00 +10°C° 0.2 mm 1 mps 685 mmHg 90%
    02:00 +10°C° 0.5 mm 1 mps 685 mmHg 91%
    03:00 +9°C° 0.5 mm 1 mps 685 mmHg 93%
    04:00 +9°C° 0.5 mm 1 mps 685 mmHg 94%
    05:00 +9°C° 0.8 mm 1 mps 684 mmHg 95%
    06:00 +8°C° 0.8 mm 2 mps 684 mmHg 95%
    07:00 +8°C° 0.8 mm 2 mps 684 mmHg 96%
    08:00 +8°C° 1.5 mm 2 mps 684 mmHg 95%
    09:00 +8°C° 1.5 mm 2 mps 684 mmHg 94%
    10:00 +8°C° 1.5 mm 2 mps 684 mmHg 93%
    11:00 +8°C° 1.5 mm 2 mps 684 mmHg 92%
    12:00 +7°C° 1.5 mm 2 mps 683 mmHg 92%
    13:00 +7°C° 1.5 mm 2 mps 683 mmHg 91%
    14:00 +6°C° 1.1 mm 2 mps 683 mmHg 91%
    15:00 +5°C° 1.1 mm 3 mps 683 mmHg 92%
    16:00 +4°C° 1.1 mm 3 mps 682 mmHg 92%
    17:00 +5°C° 0.7 mm 2 mps 683 mmHg 93%
    18:00 +5°C° 0.7 mm 2 mps 683 mmHg 94%
    19:00 +4°C° 0.7 mm 2 mps 683 mmHg 94%
    20:00 +4°C° 0.7 mm 2 mps 683 mmHg 95%
    21:00 +4°C° 0.7 mm 2 mps 684 mmHg 95%
    22:00 +3°C° 0.7 mm 3 mps 684 mmHg 95%
    23:00 +3°C° 0.3 mm 2 mps 684 mmHg 95%

    23 October, Monday

    Time Temperature Precipitation Wind Pressure Humidity
    00:00 +3°C° 0.3 mm 2 mps 683 mmHg 95%
    01:00 +3°C° 0.3 mm 2 mps 683 mmHg 94%
    02:00 +2°C° 0.1 mm 2 mps 683 mmHg 94%
    03:00 +2°C° 0.1 mm 2 mps 683 mmHg 94%
    04:00 +2°C° 0.1 mm 2 mps 683 mmHg 93%
    05:00 +2°C° 0.4 mm 2 mps 683 mmHg 94%
    06:00 +2°C° 0.4 mm 2 mps 683 mmHg 94%
    07:00 +2°C° 0.4 mm 2 mps 683 mmHg 94%
    08:00 +3°C° 1 mm 2 mps 683 mmHg 93%
    09:00 +4°C° 1 mm 2 mps 683 mmHg 93%
    10:00 +5°C° 1 mm 2 mps 684 mmHg 92%
    11:00 +5°C° 0.9 mm 2 mps 684 mmHg 92%
    12:00 +4°C° 0.9 mm 3 mps 684 mmHg 92%
    13:00 +5°C° 0.9 mm 3 mps 684 mmHg 92%
    14:00 +5°C° 0.6 mm 3 mps 684 mmHg 92%
    15:00 +5°C° 0.6 mm 2 mps 684 mmHg 92%
    16:00 +5°C° 0.6 mm 2 mps 684 mmHg 93%
    17:00 +5°C° 0.8 mm 2 mps 685 mmHg 93%
    18:00 +5°C° 0.8 mm 2 mps 685 mmHg 94%
    19:00 +4°C° 0.8 mm 2 mps 685 mmHg 95%
    20:00 +4°C° 0.8 mm 2 mps 686 mmHg 95%
    21:00 +4°C° 0.8 mm 2 mps 686 mmHg 95%
    22:00 +5°C° 0.8 mm 2 mps 686 mmHg 95%
    23:00 +5°C° 0.7 mm 2 mps 686 mmHg 95%

    24 October, Tuesday

    Time Temperature Precipitation Wind Pressure Humidity
    00:00 +5°C° 0.7 mm 2 mps 686 mmHg 95%
    01:00 +5°C° 0.7 mm 2 mps 686 mmHg 95%
    02:00 +5°C° 0.7 mm 2 mps 686 mmHg 95%
    03:00 +5°C° 0.7 mm 2 mps 686 mmHg 95%
    04:00 +5°C° 0.7 mm 2 mps 686 mmHg 95%
    05:00 +5°C° 1 mm 2 mps 686 mmHg 95%
    06:00 +5°C° 1 mm 2 mps 686 mmHg 95%
    07:00 +5°C° 1 mm 2 mps 686 mmHg 94%
    08:00 +6°C° 1.2 mm 2 mps 686 mmHg 95%
    09:00 +6°C° 1.2 mm 2 mps 686 mmHg 95%
    10:00 +7°C° 1.2 mm 2 mps 687 mmHg 95%
    11:00 +8°C° 0.3 mm 2 mps 687 mmHg 95%
    12:00 +8°C° 0.3 mm 2 mps 687 mmHg 95%
    13:00 +9°C° 0.3 mm 2 mps 687 mmHg 94%
    14:00 +9°C° 0.5 mm 2 mps 687 mmHg 95%
    15:00 +9°C° 0.5 mm 2 mps 687 mmHg 95%
    16:00 +9°C° 0.5 mm 2 mps 687 mmHg 96%
    17:00 +8°C° 0.5 mm 2 mps 688 mmHg 96%
    18:00 +8°C° 0.5 mm 2 mps 688 mmHg 97%
    19:00 +8°C° 0.5 mm 2 mps 688 mmHg 97%
    20:00 +8°C° 0.3 mm 2 mps 689 mmHg 97%
    21:00 +8°C° 0.3 mm 2 mps 689 mmHg 97%
    22:00 +8°C° 0.3 mm 2 mps 689 mmHg 97%
    23:00 +8°C° 0 mm 2 mps 689 mmHg 97%

    25 October, Wednesday

    Time Temperature Precipitation Wind Pressure Humidity
    00:00 +7°C° 0 mm 2 mps 689 mmHg 97%
    01:00 +7°C° 0 mm 2 mps 689 mmHg 97%
    02:00 +7°C° 0 mm 2 mps 689 mmHg 97%
    03:00 +7°C° 0 mm 2 mps 689 mmHg 96%
    04:00 +6°C° 0 mm 2 mps 689 mmHg 96%
    05:00 +6°C° 0 mm 2 mps 689 mmHg 95%
    06:00 +6°C° 0 mm 2 mps 689 mmHg 93%
    07:00 +7°C° 0 mm 1 mps 690 mmHg 92%
    08:00 +9°C° 0 mm 1 mps 690 mmHg 92%
    09:00 +10°C° 0 mm 1 mps 690 mmHg 92%
    10:00 +12°C° 0 mm 1 mps 691 mmHg 92%
    11:00 +13°C° 0 mm 1 mps 691 mmHg 91%
    12:00 +13°C° 0 mm 1 mps 691 mmHg 89%
    13:00 +14°C° 0 mm 1 mps 691 mmHg 87%
    14:00 +14°C° 0 mm 1 mps 690 mmHg 89%
    15:00 +13°C° 0 mm 1 mps 690 mmHg 90%
    16:00 +12°C° 0 mm 0 mps 690 mmHg 91%
    17:00 +11°C° 0 mm 1 mps 690 mmHg 87%
    18:00 +10°C° 0 mm 1 mps 690 mmHg 84%
    19:00 +9°C° 0 mm 1 mps 690 mmHg 81%
    20:00 +8°C° 0 mm 1 mps 691 mmHg 79%
    21:00 +8°C° 0 mm 1 mps 691 mmHg 76%
    22:00 +8°C° 0 mm 1 mps 691 mmHg 74%
    23:00 +8°C° 0 mm 1 mps 691 mmHg 73%
    Show more